{"data":{"norad_id":56300,"intl_designator":"2023-056Q","name":"STARLINK-30104","alt_names":[],"object_type":"PAYLOAD","status":"ACTIVE","operator":null,"country":"US","launch_date":"2023-04-19","launch_site_code":"AFETR","launch_vehicle":null,"mission":null,"orbit_class":"UNKNOWN","rcs_meters":null,"size_class":null,"mass_kg":null,"dimensions":null,"purposes":["comms"],"wikipedia_slug":null,"has_3d_model":false,"image_url":null,"decayed_at":null,"tle_current":{"epoch":"2026-09-19T04:54:18.056160Z","epoch_age_seconds":221023,"freshness":"STALE","line1":"1 56300U 23056Q   26262.20437565  .00001025  00000+0  46745-4 0  9997","line2":"2 56300  43.0023 196.2215 0000813 268.9967  91.0791 15.27578570189690","mean_motion":15.2757857,"eccentricity":8.13e-5,"inclination_deg":43.0023,"raan_deg":196.2215,"arg_perigee_deg":268.9967,"mean_anomaly_deg":91.0791,"bstar":4.6745e-5,"rev_number":18969,"period_min":94.266836958835,"perigee_km":482.4955631997,"apogee_km":483.61119275516,"semimajor_km":6861.1903779774,"source":"CELESTRAK","updated_at":"2026-09-21T09:00:33.393982Z"}}}